Caribou, ME

9:21 AM EST on December 13, 2017 (GMT -0500)
Caribou Municipal

Weather History for KCAR - May, 2013

Change the Weather History Date:

Sunday, May 12, 2013

  Actual Average Record
Temperature  
Mean Temperature 52 °F 50 °F  
Max Temperature 59 °F 61 °F 78 °F (1959)
Min Temperature 45 °F 39 °F 27 °F (1966)
Degree Days  
Heating Degree Days 13 15  
Month to date heating degree days 80 202  
Since 1 July heating degree days 8094 8968  
Cooling Degree Days 0 0  
Month to date cooling degree days 1 0  
Year to date cooling degree days 1 0  
Growing Degree Days 4 (Base 50)    
Moisture  
Dew Point 50 °F    
Average Humidity 84    
Maximum Humidity 100    
Minimum Humidity 67    
Precipitation  
Precipitation 0.54 in 0.10 in 0.75 in (1996)
Month to date precipitation 1.09 1.18  
Year to date precipitation 9.60 11.27  
Snow  
Snow 0.00 in 0.10 in 5.60 in (1996)
Month to date snowfall 0.0 0.4  
Since 1 July snowfall 106.9 108.6  
Snow Depth 0.00 in    
Sea Level Pressure  
Sea Level Pressure 29.59 in    
Wind  
Wind Speed 3 mph (WSW)    
Max Wind Speed 13 mph    
Max Gust Speed 22 mph    
Visibility 8 miles    
Events Rain    
T = Trace of Precipitation, MM = Missing Value Source: NWS Daily Summary

Daily Weather History Graph

Daily Weather History Graph

Search for Another Location

Airport or City:

Trip Planner

Search our weather history database for the weather conditions in past years. The results will help you decide how hot, cold, wet, or windy it might be!

Date:

Astronomy

May. 12, 2013 Rise Set
Actual Time 5:00 AM EDT 7:56 PM EDT
Civil Twilight 4:25 AM EDT 8:32 PM EDT
Nautical Twilight 3:39 AM EDT 9:18 PM EDT
Astronomical Twilight 2:45 AM EDT 10:13 PM EDT
Moon 6:50 AM EDT (5/12) 10:23 PM EDT (5/12)
Length of Visible Light 16h 07m
Length of Day
14h 56m
Waxing Crescent, 6% of the Moon is Illuminated
May 12
Waxing Crescent
May 18
First Quarter
May 25
Full
May 31
Last Quarter
Jun 8
New

Hourly Weather History & Observations

Time (EDT) Temp. Windchill Dew Point Humidity Pressure Visibility Wind Dir Wind Speed Gust Speed Precip Events Conditions
12:54 AM 55.9 °F - 55.0 °F 97% 29.63 in 8.0 mi South 4.6 mph - 0.05 in   Overcast
1:54 AM 57.0 °F - 55.9 °F 96% 29.64 in 10.0 mi SSW 5.8 mph - N/A   Overcast
2:03 AM 57.2 °F - 55.4 °F 94% 29.62 in 10.0 mi SW 6.9 mph - N/A   Overcast
2:23 AM 57.2 °F - 55.4 °F 94% 29.62 in 10.0 mi WSW 8.1 mph - N/A   Overcast
2:54 AM 55.9 °F - 53.1 °F 90% 29.63 in 10.0 mi West 4.6 mph - N/A   Overcast
3:21 AM 55.4 °F - 53.6 °F 94% 29.63 in 10.0 mi WSW 6.9 mph - N/A   Overcast
3:54 AM 54.0 °F - 51.1 °F 90% 29.65 in 10.0 mi WSW 5.8 mph - N/A   Overcast
4:54 AM 52.0 °F - 48.9 °F 89% 29.64 in 10.0 mi West 3.5 mph - N/A   Mostly Cloudy
5:29 AM 51.8 °F - 48.2 °F 88% 29.65 in 10.0 mi South 3.5 mph - N/A   Mostly Cloudy
5:41 AM 51.8 °F - 48.2 °F 88% 29.65 in 10.0 mi SSW 4.6 mph - N/A   Overcast
5:52 AM 51.8 °F - 48.2 °F 88% 29.65 in 10.0 mi Calm Calm - N/A   Overcast
5:54 AM 51.1 °F - 48.9 °F 92% 29.66 in 10.0 mi Variable 3.5 mph - N/A   Overcast
6:01 AM 51.8 °F - 48.2 °F 88% 29.65 in 10.0 mi SW 3.5 mph - 0.00 in Rain Light Rain
6:54 AM 52.0 °F - 48.0 °F 86% 29.67 in 10.0 mi SW 4.6 mph - 0.00 in   Overcast
7:54 AM 52.0 °F - 48.0 °F 86% 29.66 in 10.0 mi WSW 5.8 mph - N/A   Overcast
8:54 AM 53.1 °F - 46.9 °F 80% 29.66 in 10.0 mi Calm Calm - N/A   Mostly Cloudy
9:11 AM 53.6 °F - 46.4 °F 77% 29.65 in 10.0 mi Calm Calm - N/A   Scattered Clouds
9:54 AM 55.9 °F - 46.0 °F 69% 29.63 in 10.0 mi NW 3.5 mph - N/A   Partly Cloudy
10:54 AM 57.9 °F - 46.0 °F 65% 29.62 in 10.0 mi South 4.6 mph - N/A   Mostly Cloudy
11:54 AM 57.9 °F - 46.9 °F 67% 29.60 in 10.0 mi East 5.8 mph - N/A   Overcast
1:01 PM 53.6 °F - 50.0 °F 88% 29.57 in 2.0 mi Calm Calm - 0.02 in Rain Rain
1:24 PM 53.6 °F - 51.8 °F 94% 29.56 in 3.0 mi Calm Calm - 0.07 in Rain Rain
1:41 PM 53.6 °F - 51.8 °F 94% 29.56 in 2.5 mi Calm Calm - 0.10 in Rain Rain
1:54 PM 53.1 °F - 51.1 °F 93% 29.57 in 2.0 mi Calm Calm - 0.11 in Rain Light Rain
2:01 PM 53.6 °F - 51.8 °F 94% 29.55 in 2.0 mi West 4.6 mph - 0.01 in Rain Rain
2:15 PM 53.6 °F - 51.8 °F 94% 29.54 in 5.0 mi West 3.5 mph - 0.03 in Rain Light Rain
2:50 PM 51.8 °F - 50.0 °F 94% 29.54 in 1.8 mi West 4.6 mph - 0.05 in Rain Rain
2:54 PM 52.0 °F - 50.0 °F 93% 29.56 in 1.2 mi West 4.6 mph - 0.06 in Rain Rain
3:11 PM 51.8 °F - 51.8 °F 100% 29.54 in 2.0 mi Calm Calm - 0.09 in Rain Rain
3:16 PM 51.8 °F - 51.8 °F 100% 29.53 in 3.0 mi Calm Calm - 0.10 in Rain Rain
3:51 PM 53.6 °F - 51.8 °F 94% 29.52 in 4.0 mi WNW 3.5 mph - 0.16 in Rain Rain
3:54 PM 53.1 °F - 51.1 °F 93% 29.53 in 4.0 mi Calm Calm - 0.16 in Rain Rain
4:54 PM 52.0 °F - 51.1 °F 97% 29.53 in 2.5 mi West 4.6 mph - 0.09 in Rain Rain
5:05 PM 53.6 °F - 51.8 °F 94% 29.50 in 4.0 mi Calm Calm - 0.01 in Rain Light Rain
5:54 PM 53.1 °F - 51.1 °F 93% 29.52 in 9.0 mi Calm Calm - 0.03 in Rain Light Rain
6:44 PM 53.6 °F - 51.8 °F 94% 29.51 in 10.0 mi West 3.5 mph - 0.00 in   Overcast
6:54 PM 53.1 °F - 52.0 °F 96% 29.53 in 10.0 mi Calm Calm - 0.00 in Rain Light Rain
7:19 PM 53.6 °F - 51.8 °F 94% 29.52 in 10.0 mi Calm Calm - 0.00 in   Overcast
7:37 PM 53.6 °F - 51.8 °F 94% 29.53 in 10.0 mi WSW 3.5 mph - 0.00 in   Overcast
7:54 PM 53.1 °F - 52.0 °F 96% 29.55 in 10.0 mi SSW 3.5 mph - 0.00 in   Overcast
8:38 PM 53.6 °F - 51.8 °F 94% 29.54 in 10.0 mi WSW 3.5 mph - N/A   Overcast
8:54 PM 53.1 °F - 51.1 °F 93% 29.56 in 10.0 mi West 3.5 mph - N/A   Overcast
9:54 PM 51.1 °F - 46.9 °F 86% 29.58 in 10.0 mi WNW 8.1 mph 16.1 mph 0.00 in   Overcast
10:54 PM 48.0 °F - 43.0 °F 83% 29.60 in 9.0 mi West 5.8 mph - 0.00 in Rain Light Rain
11:54 PM 46.0 °F 43.9 °F 42.1 °F 86% 29.61 in 10.0 mi WSW 4.6 mph - 0.01 in   Overcast